GFSGL_250_spd_129.txt.gz
Wind_Speed
114 107 107 109 105 95 91 79 77 81 75 74 74 74 72 74 70 70 72 69 74 75 75 76 75 69 71 75 79 79 84 75 77 78 81 89 88 87 90 92 102 103 108
125 127 121 120 112 102 93 91 84 82 81 84 85 87 84 84 81 78 76 80 78 73 77 72 69 70 76 76 79 78 77 80 82 89 92 92 96 97 95 111 113 110 107
67 96 122 121 114 115 109 103 99 103 96 97 97 101 96 98 90 77 78 81 75 79 77 79 78 77 78 74 80 82 83 86 91 95 97 102 102 101 113 122 105 98 100
29 52 72 84 95 112 129 124 119 116 114 107 103 99 95 92 94 85 83 81 81 81 79 80 79 83 83 83 88 90 94 95 99 99 103 119 115 117 104 102 105 105 104
13 20 33 49 63 73 83 94 107 110 114 112 106 98 96 91 88 82 78 73 79 82 84 88 88 89 91 96 99 103 103 110 112 115 111 107 101 99 98 100 96 99 102
21 19 22 35 47 57 65 77 89 91 92 94 97 100 103 98 98 95 91 96 96 92 95 96 99 101 105 108 112 113 119 116 111 109 104 101 101 97 91 92 95 96 96
18 16 20 28 38 52 62 71 81 86 88 97 97 104 108 105 102 98 104 103 99 100 103 108 111 113 118 117 120 114 111 97 96 96 99 91 88 87 87 91 94 95 98
20 16 12 24 38 46 53 63 74 82 91 95 97 102 102 106 108 113 104 100 101 108 113 117 119 117 115 115 106 94 90 96 94 92 86 83 84 85 86 90 94 97 100
20 17 16 13 14 25 41 55 67 71 83 85 101 107 100 99 99 103 106 110 111 115 115 116 107 101 96 93 83 82 82 82 81 79 78 80 82 85 90 93 95 96 95
25 23 20 19 21 23 26 30 35 41 51 67 75 79 86 91 96 101 99 95 82 79 90 86 78 78 78 75 75 76 76 76 77 78 80 83 86 88 89 91 90 92 95
27 27 25 24 24 26 29 31 35 38 40 44 48 52 57 64 66 68 67 71 72 72 72 70 67 64 64 65 67 70 72 73 76 78 79 79 81 85 86 86 90 93 96
29 30 29 28 29 29 31 34 36 40 41 41 42 46 50 52 53 55 56 58 58 57 58 57 57 58 59 61 62 64 66 70 72 73 75 78 81 81 82 87 92 93 87
32 33 34 33 31 33 35 36 39 41 44 45 45 45 47 48 49 49 51 52 53 54 55 55 56 57 58 59 61 63 65 67 69 71 73 75 75 79 84 89 90 84 84
34 35 36 36 35 37 38 39 41 44 46 48 49 47 46 47 46 46 47 48 50 51 51 51 53 55 57 59 60 61 61 63 66 67 69 70 74 79 84 84 81 83 86
36 38 39 41 40 38 39 41 43 45 47 50 50 48 46 45 44 44 44 46 48 49 48 50 53 55 56 58 59 61 62 63 63 63 65 70 76 81 77 76 79 83 81
39 39 41 44 45 41 41 44 45 45 48 51 50 49 47 44 42 42 43 45 48 50 51 52 55 56 56 56 58 59 61 61 60 62 68 74 77 75 72 76 80 80 71
39 39 42 45 47 45 44 46 48 47 50 54 51 49 47 42 40 40 41 44 47 49 50 52 53 54 53 54 56 58 59 58 60 66 72 74 72 70 74 78 80 70 66
43 41 42 48 49 48 47 50 50 50 53 56 52 49 46 42 39 39 41 43 45 46 48 51 52 52 51 53 55 57 55 56 63 70 71 68 66 72 76 78 69 64 60
47 45 47 50 52 50 50 51 51 55 57 55 51 49 46 41 38 40 42 44 44 45 49 52 53 52 52 53 56 55 55 61 67 68 65 63 67 73 76 68 62 59 54
51 50 51 53 53 51 53 53 54 59 56 52 51 48 44 41 38 41 44 44 44 46 50 51 53 53 53 55 55 54 59 65 66 63 61 65 69 74 68 60 57 53 49
55 55 56 56 53 53 55 57 61 58 55 53 52 48 43 40 40 42 45 44 45 49 51 51 53 54 54 55 53 57 63 63 60 59 62 66 71 68 59 55 51 48 45
57 58 55 54 54 58 64 62 57 57 56 54 51 47 43 41 42 44 45 46 49 51 51 52 52 53 53 52 55 61 60 57 56 60 64 67 67 58 54 50 46 43 41
53 56 57 59 60 64 62 57 57 57 56 53 49 45 43 43 45 47 47 48 50 51 52 52 50 49 49 52 58 57 54 52 57 61 64 65 57 51 48 44 42 39 37
57 59 62 60 57 58 58 57 56 55 54 51 48 46 46 46 47 47 48 51 51 50 49 47 45 45 49 53 53 49 49 53 57 61 63 57 49 46 42 39 37 35 34
60 60 61 60 60 60 59 57 55 54 52 49 48 49 48 48 48 49 50 48 46 43 41 41 41 46 49 48 45 45 48 53 57 60 57 48 44 40 37 36 34 33 31
61 63 64 61 61 61 59 58 56 54 51 50 48 47 46 47 47 46 43 41 39 37 36 39 44 45 46 40 40 44 48 52 56 58 51 44 40 37 35 33 33 31 30

GFSGL_250_spd_135.txt.gz
Wind_Speed
86 78 73 75 68 69 67 66 61 64 66 65 60 61 64 65 65 68 66 68 70 69 77 79 78 73 78 81 80 83 84 84 87 89 87 86 83 77 78 81 89 84 89
81 81 80 72 70 68 74 75 75 74 67 71 68 71 68 69 67 70 74 75 82 87 85 87 80 77 84 86 89 89 94 96 86 93 79 79 78 84 85 82 94 94 106
60 77 79 84 82 84 87 73 73 77 74 78 79 75 77 81 82 85 79 87 81 80 84 84 86 90 97 99 100 95 96 92 88 93 80 81 77 88 92 97 105 105 110
49 59 74 83 85 84 80 84 78 82 80 79 73 72 76 78 78 86 84 87 90 91 99 101 103 106 107 105 101 90 82 80 89 85 85 94 94 97 111 113 106 106 112
3 30 68 76 82 86 91 86 88 85 86 89 89 90 83 85 81 90 94 93 98 101 99 98 88 84 86 83 75 80 82 87 93 96 98 102 106 108 106 104 110 106 101
22 10 8 35 78 83 87 93 99 97 103 97 101 101 101 102 105 105 110 109 111 89 94 87 78 81 78 83 87 92 96 100 103 104 102 100 101 102 93 92 99 98 96
25 23 18 7 4 15 34 56 81 96 93 95 94 98 104 108 101 107 112 99 94 96 90 87 87 86 88 88 92 91 92 98 102 101 96 90 89 82 84 92 88 97 97
27 24 22 20 17 15 13 13 16 22 28 35 53 71 68 61 58 59 66 63 69 75 76 76 78 81 84 85 85 86 88 89 89 87 86 84 83 86 84 86 85 86 85
26 26 23 23 22 21 21 22 22 24 26 28 30 34 38 42 45 47 50 52 58 63 66 69 72 74 75 77 79 79 80 80 80 79 79 78 75 78 79 79 79 79 80
28 27 25 23 24 25 25 26 27 28 31 34 37 39 41 43 44 46 48 50 54 55 56 57 59 61 65 68 70 72 73 73 73 72 71 71 72 72 73 74 76 78 78
32 30 28 27 27 28 29 32 33 32 32 33 35 40 44 47 49 53 55 57 58 58 56 57 59 60 60 62 64 67 67 67 66 66 67 67 67 69 72 73 75 75 73
35 33 32 31 31 30 32 35 37 39 39 38 39 40 42 45 49 52 57 58 60 61 62 62 60 59 57 58 60 63 64 64 64 65 65 66 68 69 70 71 71 71 72
36 35 35 36 37 36 37 39 40 41 42 45 45 46 46 47 49 52 56 58 60 62 64 62 59 57 55 55 57 59 60 61 62 63 65 66 66 67 69 70 70 71 71
38 37 37 39 42 41 41 42 45 46 45 47 50 52 52 52 55 57 57 58 61 62 62 60 57 56 54 53 54 55 56 58 60 62 63 64 65 67 68 69 70 70 69
39 39 40 42 43 45 45 46 46 47 48 50 52 54 56 57 59 59 59 62 62 62 58 57 55 54 53 51 53 53 55 57 58 60 62 63 65 67 68 69 69 68 71
41 38 40 42 42 45 46 46 48 48 50 52 56 57 58 59 62 62 62 64 65 63 60 56 55 54 52 51 52 53 55 56 58 60 61 63 65 66 66 65 65 67 63
31 37 41 42 45 46 46 46 48 51 52 55 59 62 63 64 66 66 66 66 65 63 59 57 55 53 52 52 53 54 55 57 59 60 61 62 63 63 61 63 61 58 63
31 36 39 41 43 44 46 49 52 54 56 59 62 65 63 64 65 67 67 65 63 60 58 56 54 52 52 54 55 55 57 58 60 60 61 61 58 57 60 57 55 60 65
41 42 45 42 42 46 49 52 55 57 57 56 60 63 64 65 65 63 63 61 61 59 56 54 52 52 53 55 55 55 57 59 59 59 56 52 53 56 52 53 58 61 65
41 41 49 50 45 48 50 51 53 57 59 59 62 64 63 62 62 62 62 61 58 56 55 53 52 52 54 55 55 55 57 57 54 50 47 51 51 48 50 55 58 61 55
48 59 56 47 46 52 55 56 57 58 60 59 60 62 61 61 61 61 60 57 57 56 55 55 54 54 54 55 54 54 52 48 45 44 48 47 43 46 51 55 58 53 47
52 50 45 50 53 55 54 57 60 61 61 60 55 60 64 64 63 61 60 58 57 57 55 55 55 54 53 51 49 46 43 40 41 44 44 40 41 47 50 53 52 45 41
48 56 62 61 57 56 57 57 59 59 57 58 60 58 58 56 54 53 52 52 52 52 52 52 50 48 45 43 40 36 36 40 41 41 37 38 41 46 48 51 48 41 38
58 61 51 56 59 59 58 57 56 56 54 56 55 53 51 48 45 44 44 45 45 44 43 41 40 39 36 33 32 35 38 39 39 36 34 36 40 43 46 48 47 40 36
49 59 62 65 60 57 58 55 54 53 52 52 48 46 44 42 40 39 38 37 35 34 34 33 31 29 29 31 35 37 38 37 35 33 33 35 39 41 43 44 46 41 37
59 58 61 58 60 58 55 53 51 48 49 49 44 41 39 36 34 32 30 29 28 26 24 26 28 30 32 34 37 37 36 35 33 32 32 35 38 40 40 42 42 44 38

GFSGL_250_spd_138.txt.gz
Wind_Speed
60 70 76 80 69 60 63 56 71 69 72 71 70 70 70 71 69 70 70 68 70 66 63 65 69 71 71 71 76 77 74 90 85 83 85 92 94 96 94 97 85 77 74
55 67 82 82 68 67 61 59 64 65 69 68 67 64 67 69 69 65 65 66 63 67 71 74 72 76 76 83 78 81 86 90 94 95 98 94 97 86 82 78 79 80 79
43 58 70 72 73 67 73 71 65 60 57 62 69 69 66 67 64 64 65 65 71 74 77 79 82 80 84 88 87 91 93 99 100 94 95 89 76 73 78 80 84 85 92
24 47 67 74 76 73 72 70 70 73 63 67 68 71 71 73 71 72 76 79 79 78 82 85 87 88 91 89 94 98 94 91 91 86 78 83 80 79 89 92 95 100 106
18 18 39 61 70 88 67 68 69 72 69 77 79 80 79 79 82 83 84 80 77 88 89 90 100 92 92 91 95 95 92 81 82 81 81 91 94 93 97 102 108 105 97
15 11 3 30 58 78 76 75 73 77 77 82 75 82 82 85 88 88 85 88 95 95 99 104 102 97 99 85 82 86 84 84 86 91 93 96 99 103 100 96 94 92 88
17 10 5 5 10 29 57 73 81 86 85 92 89 89 91 98 99 97 101 103 104 101 96 105 90 78 80 75 77 75 80 79 78 80 81 84 86 89 88 87 86 84 84
21 20 17 11 8 9 14 18 24 32 41 58 68 62 60 62 62 58 56 52 53 54 56 55 57 62 61 65 65 68 68 70 72 74 76 79 81 82 81 81 81 81 80
24 23 23 22 20 17 17 17 19 20 22 25 31 37 40 40 40 42 43 44 47 49 51 54 56 58 59 61 62 65 67 66 69 70 72 73 74 76 76 76 76 77 77
27 28 28 25 24 25 24 24 25 25 26 28 30 34 37 39 41 43 44 45 47 49 52 55 57 58 60 62 62 64 64 66 67 68 69 70 70 72 72 72 74 74 76
30 32 32 30 28 26 26 27 28 30 31 32 33 35 39 42 45 48 50 51 52 54 55 56 58 60 62 61 63 64 63 65 66 66 66 67 68 68 69 70 72 74 76
31 35 36 34 33 32 30 30 31 33 35 38 39 40 41 43 45 48 51 54 56 58 60 61 63 63 63 64 66 63 61 62 64 63 62 63 64 65 67 70 72 74 74
34 41 42 40 38 36 36 36 36 37 38 40 42 44 46 46 47 49 51 54 57 60 64 65 67 66 65 66 66 63 61 61 62 61 60 61 63 65 67 70 72 72 70
36 49 44 39 38 37 38 41 42 43 43 44 46 47 48 49 49 50 54 57 59 61 64 67 69 68 67 67 65 62 60 61 60 59 59 61 63 66 68 69 68 68 69
38 46 34 27 32 36 40 43 44 44 47 49 49 50 51 53 53 54 57 61 64 66 67 67 67 67 66 63 61 60 59 60 59 58 59 62 64 66 67 65 65 66 64
42 46 39 40 41 31 36 41 45 46 47 48 49 52 56 58 59 61 62 64 65 63 64 63 63 62 61 59 58 57 57 57 57 57 59 61 64 64 63 62 61 60 60
44 49 45 39 40 40 42 51 49 45 48 50 52 55 58 61 64 64 64 63 63 63 62 61 61 60 60 58 55 54 54 54 55 56 58 59 60 60 58 56 54 57 59
49 53 50 47 50 48 50 54 51 50 52 57 59 60 61 62 64 64 62 62 61 61 61 61 60 59 58 56 56 55 54 54 55 55 56 56 57 55 52 50 53 53 54
53 56 55 52 51 53 54 53 54 57 61 61 61 60 60 60 61 62 60 57 58 61 63 64 63 60 59 59 58 57 55 54 53 52 53 54 52 48 47 50 47 49 53
55 57 54 54 49 53 56 58 66 71 65 68 67 66 64 59 59 60 57 58 63 65 65 63 59 59 58 57 57 57 56 53 52 51 49 47 44 45 47 43 44 48 51
57 59 55 47 50 61 63 68 69 65 69 67 66 66 63 60 60 60 58 60 60 59 58 56 53 53 54 54 53 51 50 49 47 44 42 40 44 44 41 40 43 46 48
55 51 54 55 60 60 66 70 74 71 63 63 63 62 62 61 60 57 57 55 53 52 51 50 48 48 47 46 45 45 44 42 39 37 38 41 42 40 38 38 41 44 46
57 60 62 60 62 66 69 69 68 67 65 63 63 62 61 58 53 53 50 48 46 45 44 43 42 41 41 40 38 38 36 34 34 37 39 41 40 36 36 37 39 42 44
58 62 67 68 64 58 70 76 66 65 63 63 61 57 53 47 48 47 44 42 41 40 39 38 37 36 34 33 32 30 32 35 37 39 39 39 37 35 35 36 37 40 42
62 67 66 67 66 73 79 76 70 66 64 61 56 51 45 43 43 41 39 38 37 35 33 31 30 29 30 32 33 33 35 38 39 38 38 37 35 35 36 36 36 38 40
65 66 69 71 71 75 79 70 67 63 58 54 50 46 42 41 40 38 34 32 30 28 27 29 30 31 33 35 37 38 38 38 38 38 37 35 35 36 35 35 36 37 38

GFSGL_250_spd_144.txt.gz
Wind_Speed
7 14 20 28 33 34 41 49 61 68 76 81 78 83 84 84 80 67 63 62 61 63 64 67 67 68 68 69 72 73 75 78 76 76 80 84 86 84 87 89 91 88 90
8 10 13 18 25 35 46 47 49 59 64 71 73 73 81 83 80 73 65 62 63 62 63 62 62 66 69 70 75 77 78 79 82 85 90 87 89 92 94 96 96 97 97
5 10 13 17 21 28 33 44 51 55 60 66 68 71 80 79 77 72 69 63 66 66 63 62 67 69 71 73 74 80 85 85 91 91 90 92 95 100 100 102 102 103 108
24 9 6 14 19 25 29 33 49 49 54 61 65 66 70 72 72 69 63 66 63 64 66 68 69 75 80 81 85 88 89 91 92 93 95 99 101 103 105 104 105 104 107
27 26 17 10 9 13 25 35 35 42 49 56 59 58 62 65 71 72 74 65 65 71 75 77 78 78 80 85 84 86 89 95 98 100 102 106 105 106 104 103 99 100 101
24 21 19 17 10 11 19 32 41 44 46 51 58 58 59 67 69 68 66 68 68 70 74 81 86 89 86 87 93 94 93 98 103 105 106 95 100 97 94 93 88 88 91
25 21 17 13 10 8 13 25 39 50 52 52 58 57 61 61 60 61 68 70 71 79 85 88 86 87 91 94 101 102 99 97 103 91 86 82 88 82 78 76 78 80 82
25 21 19 16 11 6 7 13 22 38 48 60 60 63 67 67 68 71 74 76 82 86 90 92 93 92 89 85 77 79 74 75 78 82 79 76 77 78 77 78 77 79 79
23 23 21 20 20 17 12 10 16 24 31 37 43 55 68 75 79 76 71 72 74 74 76 76 78 79 77 76 75 77 74 75 73 73 72 73 75 76 77 77 77 78 78
22 25 20 21 23 21 22 19 17 20 23 29 36 41 46 53 60 61 59 58 59 60 61 60 61 67 69 69 69 70 70 73 74 75 75 76 77 77 77 76 76 76 77
25 25 27 23 22 23 23 24 23 21 21 25 29 31 35 39 43 47 50 54 56 59 62 63 63 65 67 68 70 72 73 73 76 77 77 77 76 75 75 75 75 75 75
23 25 28 26 24 22 22 27 24 25 26 25 26 27 30 34 38 42 44 46 48 49 51 54 59 63 66 69 71 72 74 75 75 75 75 75 74 75 76 75 74 74 74
23 26 27 29 26 24 25 29 27 26 25 30 33 36 36 33 31 33 37 43 46 52 54 55 60 63 65 68 70 71 71 71 72 73 74 75 75 75 75 74 71 70 71
24 24 28 29 31 28 29 32 34 29 30 27 27 26 29 32 35 35 39 44 52 59 61 62 64 63 63 65 66 67 68 69 71 73 73 74 74 72 71 72 71 70 67
25 23 28 28 29 31 33 36 38 38 38 40 41 39 42 42 43 47 51 53 60 69 68 62 60 59 61 62 65 66 68 68 68 69 70 70 69 71 72 71 69 66 65
28 29 26 29 33 36 39 43 45 47 50 53 53 57 62 61 59 60 61 65 66 67 64 62 60 61 62 64 64 64 65 66 66 67 67 68 70 70 68 66 62 60 60
31 31 32 34 38 39 43 47 52 54 55 57 59 63 66 73 69 73 71 65 62 62 64 63 61 60 60 61 61 62 62 62 62 63 65 66 66 63 60 57 56 57 56
30 35 37 39 40 43 48 51 55 58 60 64 69 73 76 80 83 81 74 68 65 63 66 64 61 59 57 56 57 57 58 59 59 59 59 59 57 54 52 52 52 51 49
33 37 39 41 44 46 50 55 58 61 66 70 74 77 82 86 87 81 74 69 66 62 61 58 56 54 52 51 52 55 55 53 53 54 53 51 49 48 48 47 46 44 42
33 34 38 42 46 47 52 57 61 65 68 74 77 82 87 93 89 83 77 68 63 59 55 54 51 49 47 47 50 49 48 47 46 45 44 44 44 43 42 41 40 39 41
34 36 41 43 47 51 53 58 62 68 71 76 81 84 92 91 88 79 69 61 58 54 50 50 47 46 44 44 44 44 42 42 41 40 39 38 38 38 38 39 40 41 42
37 41 44 46 51 54 55 58 63 69 73 79 85 90 95 91 81 72 64 58 53 49 47 46 44 42 42 42 41 41 39 39 38 39 39 40 40 41 42 42 42 42 42
36 42 44 48 53 56 57 61 65 70 76 81 88 94 89 75 69 62 55 51 46 45 45 43 42 42 40 40 40 39 39 39 40 40 41 43 43 43 42 42 41 40 40
36 44 49 51 55 57 58 64 68 72 77 85 91 87 75 67 59 54 49 46 43 43 41 38 38 38 40 41 41 41 41 42 43 42 42 42 41 40 40 40 39 38 37
43 48 51 52 55 58 58 64 69 73 80 88 89 75 65 57 53 49 45 43 40 37 36 36 36 36 37 38 38 38 38 38 38 38 38 37 37 37 37 36 37 36 36
44 47 50 53 56 58 61 66 71 77 84 90 77 69 60 55 50 46 41 38 35 34 34 34 33 34 34 35 36 37 38 39 40 40 39 39 37 35 34 32 32 32 32

GFSGL_250_spd_147.txt.gz
Wind_Speed
25 19 19 8 3 5 10 23 36 53 76 77 83 86 76 79 73 74 63 63 63 62 60 59 58 60 61 60 60 62 65 71 73 74 76 74 75 77 84 89 90 88 92
22 20 16 12 8 5 8 15 28 42 59 81 82 85 93 74 69 72 68 72 69 70 65 69 70 70 67 66 67 71 75 79 72 70 74 80 84 88 90 92 92 92 96
26 18 16 13 12 9 8 10 16 30 41 54 72 83 82 88 93 82 78 79 75 77 72 74 70 71 75 75 71 70 69 70 73 77 84 86 86 91 92 95 100 104 108
33 26 13 9 9 5 6 5 12 19 34 43 54 67 80 81 90 90 86 84 82 79 71 69 77 75 69 72 70 72 75 78 79 83 88 93 95 96 97 102 106 108 110
30 27 24 13 5 8 11 10 8 14 23 33 42 48 60 71 77 80 79 77 80 84 87 86 81 72 76 73 75 77 79 83 88 95 96 98 100 101 105 108 108 112 106
29 28 28 24 18 10 3 13 16 19 19 26 30 38 47 57 65 74 79 74 73 75 77 81 83 83 81 87 80 84 88 94 102 104 102 102 104 107 110 106 99 97 93
26 24 20 18 18 18 12 6 5 12 21 27 30 33 41 51 60 66 69 66 70 73 77 79 82 81 82 86 91 97 101 102 103 106 106 101 97 95 91 92 93 91 95
20 22 21 18 19 12 11 12 10 13 19 27 34 41 44 49 57 62 65 69 71 74 78 81 82 85 87 92 95 98 99 96 92 91 88 88 88 92 89 88 87 87 87
17 20 23 24 20 18 15 10 8 14 18 22 26 33 43 50 53 59 62 66 71 77 82 84 87 87 89 84 84 84 86 84 85 84 86 86 86 85 85 85 86 85 86
18 18 19 22 22 22 21 15 11 11 12 17 23 29 34 38 43 46 51 54 60 63 67 69 71 72 73 75 78 79 82 83 84 84 84 84 83 83 84 85 85 86 86
18 17 18 20 23 23 20 19 19 17 17 18 21 23 27 32 35 40 44 48 52 55 57 59 59 60 57 59 61 65 68 72 74 77 80 82 82 83 84 84 84 83 84
18 17 17 19 21 24 25 23 20 20 17 20 21 21 22 25 31 34 37 44 47 47 48 49 52 56 57 60 63 69 74 78 79 80 82 82 83 83 82 80 80 80 80
24 20 17 17 20 23 24 23 23 24 24 22 21 24 22 21 30 31 33 34 38 44 47 51 59 65 71 76 78 78 78 76 76 76 74 75 78 78 78 78 78 77 75
25 22 17 17 22 25 25 28 29 31 31 30 27 27 32 37 39 41 47 48 53 49 50 54 60 66 70 72 71 71 71 71 70 70 71 72 72 72 72 73 73 72 71
24 22 20 20 25 26 29 31 35 36 39 39 38 41 44 48 52 49 54 58 60 60 63 66 69 69 67 68 67 68 69 68 69 69 69 70 69 69 70 69 68 67 67
24 25 25 26 27 30 32 35 39 41 41 42 42 45 50 56 61 62 64 68 70 69 73 73 71 70 69 68 65 63 63 63 64 65 65 65 64 63 62 62 62 61 61
24 26 25 26 30 33 35 38 41 43 46 47 48 53 57 62 67 71 73 77 80 80 76 71 70 67 65 66 63 60 58 59 60 59 57 56 57 57 56 54 54 54 55
27 26 26 29 33 36 38 41 44 48 51 55 56 58 63 68 72 77 83 86 87 80 73 69 65 61 60 59 57 56 55 55 53 50 51 52 51 49 50 50 49 48 46
26 26 28 32 36 39 43 46 48 52 55 59 60 62 66 71 77 84 94 91 80 72 67 63 59 56 54 52 50 50 48 47 47 47 46 44 44 43 43 42 41 40 39
25 27 29 32 36 39 43 46 50 54 58 59 61 64 70 76 82 93 91 78 72 64 58 54 51 49 47 45 44 42 41 41 40 41 40 39 38 38 37 38 38 39 40
27 29 31 34 36 39 43 50 53 55 59 60 65 68 73 82 87 87 74 67 59 55 49 45 43 41 40 39 38 38 37 37 37 37 37 37 37 37 38 40 41 42 42
25 29 31 36 40 42 48 52 54 56 60 65 67 71 78 86 81 68 59 52 47 45 40 37 35 34 33 33 33 34 34 35 36 37 37 38 38 38 38 39 39 39 39
26 28 32 37 41 45 50 53 55 59 63 66 68 73 80 77 66 56 52 50 46 42 39 36 35 34 33 33 33 33 34 34 35 36 37 37 37 37 37 37 36 36 36
28 30 35 38 42 47 50 54 56 60 65 68 70 74 80 70 60 54 52 49 44 40 38 36 36 35 35 36 36 37 37 37 37 37 37 37 37 37 36 35 35 35 34
28 33 35 39 43 46 51 54 57 64 67 69 74 80 78 67 58 54 52 47 44 42 41 38 37 36 36 36 36 36 36 36 37 37 37 37 37 37 36 34 33 32 31
33 31 32 40 42 47 51 55 60 66 66 69 75 85 74 67 61 57 56 51 46 45 45 43 42 41 40 40 39 39 39 38 37 37 37 36 36 35 33 32 31 30 28

GFSGL_250_spd_150.txt.gz
Wind_Speed
23 24 24 22 23 19 8 0 15 30 60 68 76 81 81 77 81 74 66 64 66 68 70 70 68 67 68 66 67 64 65 63 64 65 66 68 74 76 77 81 82 86 87
27 18 19 20 18 23 20 6 7 22 50 69 68 74 85 83 79 73 64 71 70 67 71 71 73 75 68 70 66 66 68 71 74 77 76 74 79 82 75 76 84 86 83
33 27 20 18 16 13 19 17 9 12 33 65 71 68 79 81 84 80 74 73 73 69 70 70 72 73 72 75 74 76 70 75 77 80 82 83 84 83 84 90 91 91 96
36 34 30 23 14 11 9 12 11 11 23 41 60 71 78 74 75 84 82 74 75 74 76 78 79 74 75 78 80 78 77 77 83 89 88 87 86 90 97 96 100 101 108
33 32 32 29 23 14 9 6 4 6 16 28 42 60 67 74 78 80 81 80 79 79 83 84 83 85 86 86 86 86 90 92 94 87 97 102 105 104 99 102 107 108 109
26 28 29 29 28 24 16 8 3 1 5 13 25 39 54 68 72 74 79 82 84 85 86 87 89 94 90 86 92 91 86 85 92 91 90 94 97 99 104 107 109 108 100
22 25 28 27 25 26 22 16 8 3 6 9 13 21 30 41 47 60 75 81 83 88 89 89 84 89 90 85 92 90 88 90 91 94 97 100 102 105 106 101 101 100 99
18 21 22 24 26 25 21 21 15 8 7 11 15 18 22 27 35 41 49 55 59 65 72 80 81 82 84 86 88 88 89 93 98 100 101 105 104 105 107 105 105 103 104
17 19 17 17 21 22 21 18 16 16 15 12 12 16 22 28 33 37 42 45 49 54 59 65 70 75 80 84 88 94 96 96 97 97 99 100 101 104 105 105 104 102 102
16 15 15 14 16 18 20 19 18 17 14 14 15 18 21 25 30 34 38 43 49 55 60 65 70 75 79 83 88 91 94 96 98 98 98 100 101 100 97 97 100 101 99
15 15 14 14 12 15 19 21 21 20 16 15 15 14 18 23 22 24 27 30 35 42 47 51 54 57 62 69 76 82 85 88 89 91 91 92 92 94 96 97 97 97 98
17 16 16 16 14 14 15 18 21 24 21 20 22 20 21 18 18 23 26 26 30 33 36 42 49 53 59 66 72 78 81 84 87 91 95 96 96 99 100 99 97 93 89
20 16 16 17 14 15 17 20 22 27 30 27 30 32 28 28 27 28 29 35 38 46 46 49 57 63 66 64 67 74 80 84 85 86 88 89 93 93 92 89 86 85 82
22 18 18 19 18 18 20 25 28 28 32 31 33 33 34 35 39 38 39 43 44 48 53 59 67 69 72 70 70 73 75 76 79 80 79 81 82 81 81 80 78 77 75
20 19 20 19 20 22 23 28 30 29 30 32 35 38 40 42 44 47 50 53 57 61 65 70 74 78 78 75 73 74 74 74 74 73 72 71 71 71 71 71 70 70 68
19 19 20 18 20 22 26 27 28 31 35 38 42 45 47 49 51 52 56 60 65 72 76 78 77 75 72 71 70 70 68 69 68 66 65 63 62 63 63 64 62 60 61
21 18 17 19 21 24 24 27 31 34 38 44 47 50 53 54 57 58 60 67 75 81 80 75 71 68 68 63 60 60 59 59 58 57 56 56 56 56 56 54 55 56 55
22 19 18 22 22 22 27 31 34 37 42 50 52 53 55 59 59 62 70 78 84 78 72 68 64 61 59 57 54 53 52 52 51 51 52 52 52 52 51 50 50 50 48
21 19 21 23 25 26 30 35 35 39 45 50 52 53 58 59 63 70 78 82 71 66 62 59 56 54 52 50 50 49 49 50 49 50 50 50 50 49 49 48 48 47 46
21 21 23 26 28 29 31 37 37 41 48 50 53 56 59 62 70 77 77 67 60 56 51 50 47 46 44 42 41 41 41 42 43 43 44 45 47 48 47 47 46 45 45
24 24 27 30 32 33 34 38 41 45 48 52 56 60 60 65 74 72 63 56 53 50 48 47 44 42 40 39 38 37 37 37 38 39 41 41 42 43 43 43 43 43 43
24 25 27 31 32 32 34 40 43 45 50 54 57 59 62 68 71 64 56 52 49 47 44 44 42 39 38 38 37 36 35 36 36 37 38 40 41 42 42 43 42 41 40
22 25 28 30 30 35 37 40 44 47 52 55 58 59 63 71 67 60 54 52 50 47 45 43 44 42 39 37 37 37 37 37 37 38 39 40 41 41 42 41 41 40 39
25 27 31 29 32 37 38 41 44 50 55 58 59 61 67 72 69 62 56 54 52 50 47 45 44 44 44 43 41 41 40 39 39 39 39 40 40 40 39 39 39 38 37
31 31 34 33 37 38 40 42 45 51 56 60 60 64 69 73 66 61 55 53 53 51 48 48 49 48 47 45 43 43 43 43 42 41 41 42 40 38 36 35 35 34 33
30 29 29 33 37 38 39 41 46 52 57 61 60 65 71 70 63 59 55 54 53 53 51 51 53 53 51 48 45 44 43 42 42 43 44 43 39 37 36 33 30 28 27

GFSGL_250_spd_153.txt.gz
Wind_Speed
42 37 26 18 22 23 20 14 3 9 22 46 62 55 70 86 74 78 71 67 66 67 64 67 65 62 59 61 62 60 63 66 66 70 73 74 74 75 74 76 79 84 88
39 35 30 22 19 22 23 16 3 3 12 38 61 55 59 70 68 70 72 70 66 74 71 66 64 62 61 61 62 66 69 69 74 75 76 78 77 80 85 86 89 89 90
34 35 32 29 21 17 19 21 14 2 12 25 47 50 64 65 68 68 69 73 73 74 63 65 66 66 70 67 70 73 74 74 81 83 85 85 88 90 91 91 90 88 94
30 34 33 31 30 19 16 17 14 9 14 27 40 50 65 64 57 64 71 70 69 67 69 68 68 72 77 75 80 80 82 82 82 86 86 90 91 90 90 93 96 95 97
25 29 33 31 31 27 18 13 12 7 13 29 43 44 64 62 58 56 62 70 72 76 76 78 78 76 77 79 81 83 88 91 91 94 98 100 100 95 95 95 99 104 100
20 22 27 30 31 28 26 19 12 9 12 20 37 48 54 69 71 65 64 68 74 77 80 76 79 79 82 88 87 91 92 96 97 100 104 104 95 100 102 101 105 105 104
18 18 22 26 27 29 27 26 21 14 7 10 22 41 49 54 62 63 61 66 73 79 83 85 88 89 92 92 92 96 100 102 104 102 102 100 97 99 102 110 106 109 110
15 17 18 19 22 23 24 25 23 20 13 7 2 10 22 35 49 58 61 64 72 78 82 80 84 88 91 88 92 92 94 94 95 93 97 99 100 102 107 108 108 108 109
13 13 14 14 17 19 20 21 21 21 20 13 6 4 9 15 21 28 33 38 42 44 49 55 61 65 69 74 77 81 85 87 89 93 95 98 101 105 108 108 108 108 106
11 10 11 11 14 16 18 21 20 20 21 19 17 17 16 14 17 22 28 32 37 41 45 50 56 61 66 69 74 79 81 82 85 90 93 93 95 97 102 106 105 105 107
12 10 9 9 12 13 14 17 19 21 21 20 18 16 18 21 23 28 28 27 29 35 40 46 50 53 58 63 67 71 74 81 86 89 91 92 95 98 100 102 103 104 105
16 12 11 9 12 14 15 15 17 20 23 24 26 26 26 26 24 26 29 35 38 42 46 50 56 56 65 74 77 81 86 89 93 97 101 103 102 100 106 109 107 105 104
21 15 12 9 11 15 16 15 17 20 23 24 25 25 29 31 32 33 33 33 37 41 45 50 54 59 63 69 74 79 86 92 98 102 102 100 100 101 100 97 94 94 93
23 18 15 10 11 14 15 16 18 21 24 25 24 25 31 35 38 38 37 41 43 46 51 55 60 64 68 72 75 78 80 81 83 84 84 84 84 84 84 82 80 79 77
23 19 16 11 13 14 14 15 20 22 24 23 26 34 39 42 41 43 46 47 50 54 59 64 66 66 66 67 69 69 69 70 72 71 72 72 71 70 70 70 69 67 66
22 19 16 13 14 12 13 15 16 22 25 27 31 38 44 45 49 49 49 52 57 61 64 65 65 64 64 64 64 63 63 63 62 63 61 60 61 62 62 61 60 60 60
20 18 17 14 12 12 16 17 18 25 31 32 36 43 47 50 52 51 53 59 63 66 65 64 62 61 60 58 56 55 54 53 53 53 53 53 53 54 54 54 55 55 56
21 20 18 15 15 16 19 22 23 28 35 38 41 45 49 52 52 53 59 67 68 65 61 61 58 56 54 53 52 52 51 51 50 50 50 49 49 49 49 49 51 52 53
23 22 18 16 17 19 21 24 27 30 36 40 43 48 53 53 52 58 68 66 65 61 58 57 53 51 51 51 50 48 47 46 45 45 46 47 47 47 47 48 48 49 50
24 23 21 18 20 21 23 27 29 30 37 41 44 50 56 54 54 64 66 61 58 53 52 50 47 46 46 46 46 46 45 45 45 45 45 45 46 46 46 47 47 48 48
26 24 22 22 23 24 26 29 29 32 39 43 46 54 58 55 59 67 62 58 53 51 50 48 46 46 46 47 46 45 44 43 42 42 43 43 44 45 45 46 46 46 45
26 23 23 25 27 26 27 30 30 33 41 45 47 56 58 56 64 67 61 57 52 51 50 48 47 47 49 49 48 47 45 44 43 42 43 43 43 43 43 44 44 44 43
27 26 24 27 28 27 28 30 31 35 43 45 47 57 56 57 66 66 60 57 53 52 52 51 51 51 50 51 50 48 46 45 44 43 43 43 42 42 41 39 38 37 37
28 27 26 26 26 27 31 33 35 38 44 45 48 58 55 59 69 66 59 56 54 54 53 53 53 52 53 53 52 50 48 46 44 43 43 43 42 40 38 37 35 32 31
29 28 28 27 26 29 31 31 32 35 40 45 50 58 56 63 68 64 58 56 53 53 54 54 54 54 56 57 57 55 53 50 47 45 45 44 43 41 38 36 33 30 25
31 31 30 30 28 30 31 28 30 37 40 45 51 57 55 62 67 67 60 56 53 52 53 54 54 54 56 58 58 58 56 54 51 48 46 46 44 42 39 36 33 29 24